Weather History for Amritsar, India

Change the Weather History Date:

Sunday, January 20, 2013

  Actual Average Record
Temperature  
Mean Temperature 51 °F -  
Max Temperature 63 °F 59 °F - (-1)
Min Temperature 39 °F 39 °F - (-1)
Degree Days  
Heating Degree Days 14    
Growing Degree Days 1 (Base 50)    
Moisture  
Dew Point 46 °F    
Average Humidity 92    
Maximum Humidity 100    
Minimum Humidity 4    
Precipitation  
Precipitation 0.00 in - - ()
Sea Level Pressure  
Sea Level Pressure 30.14 in    
Wind  
Wind Speed 1 mph ()    
Max Wind Speed 9 mph    
Max Gust Speed -    
Visibility 1.7 miles    
Events Fog    
Averages and records for this station are not official NWS values.
T = Trace of Precipitation, MM = Missing Value Source: Averaged Metar Reports

Daily Weather History Graph

Daily Weather History Graph

Search for Another Location

Airport:

Trip Planner

Search our weather history database for the weather conditions in past years. The results will help you decide how hot, cold, wet, or windy it might be!

Date:

Astronomy

Jan. 20, 2013 Rise Set
Actual Time 7:29 AM IST 5:54 PM IST
Civil Twilight 7:03 AM IST 6:20 PM IST
Nautical Twilight 6:33 AM IST 6:49 PM IST
Astronomical Twilight 6:04 AM IST 7:19 PM IST
Moon 12:36 PM IST (1/20) 1:39 AM IST (1/20)
Length of Visible Light 11h 16m
Length of Day
10h 24m
Waxing Gibbous, 62% of the Moon is Illuminated
Jan 20
Waxing Gibbous
Jan 27
Full
Feb 3
Last Quarter
Feb 10
New
Feb 18
First Quarter

Hourly Weather History & Observations

Time (IST) Temp. Dew Point Humidity Pressure Visibility Wind Dir Wind Speed Gust Speed Precip Events Conditions
12:00 AM 46.4 °F 46.4 °F 100% 30.18 in - Calm Calm - N/A Fog Fog
12:30 AM 46.4 °F 46.4 °F 100% 30.18 in - Calm Calm - N/A Fog Fog
1:00 AM 46.4 °F 46.4 °F 100% 30.18 in - Calm Calm - N/A Fog Fog
1:30 AM 44.6 °F 44.6 °F 100% 30.18 in - Calm Calm - N/A Fog Fog
2:00 AM 44.6 °F 44.6 °F 100% 30.18 in - Calm Calm - N/A Fog Fog
2:30 AM 44 °F 44 °F 99% 30.19 in 0 mi Calm Calm - - Fog Partial Fog
2:30 AM 44.6 °F 44.6 °F 100% 30.15 in - Calm Calm - N/A Fog Fog
3:00 AM 42.8 °F 42.8 °F 100% 30.15 in - Calm Calm - N/A Fog Fog
4:00 AM 42.8 °F 42.8 °F 100% 30.15 in - Calm Calm - N/A Fog Fog
5:00 AM 42.8 °F 42.8 °F 100% 30.12 in - Calm Calm - N/A Fog Fog
5:30 AM 42 °F 42 °F 100% 30.17 in 0 mi Calm Calm - - Fog Heavy Fog
5:30 AM 42.8 °F -29.2 °F 4% 30.12 in - Calm Calm - N/A Fog Fog
6:00 AM 42.8 °F 42.8 °F 100% 30.12 in - Calm Calm - N/A Fog Fog
6:30 AM 41.0 °F 41.0 °F 100% 30.15 in - Calm Calm - N/A Fog Fog
7:00 AM 41.0 °F 41.0 °F 100% 30.15 in - Calm Calm - N/A Fog Fog
7:30 AM 41.0 °F 41.0 °F 100% 30.15 in - Calm Calm - N/A Fog Fog
8:00 AM 41.0 °F 41.0 °F 100% 30.15 in - Calm Calm - N/A Fog Fog
8:30 AM 41 °F 41 °F 100% 30.20 in 0 mi Calm Calm - - Fog Heavy Fog
9:00 AM 41.0 °F 41.0 °F 100% 30.18 in - Calm Calm - N/A Fog Fog
9:30 AM 42.8 °F 42.8 °F 100% 30.18 in 0.0 mi Calm Calm - N/A Fog Fog
10:00 AM 42.8 °F 42.8 °F 100% 30.21 in 0.1 mi Calm Calm - N/A Fog Fog
11:00 AM 46.4 °F 46.4 °F 100% 30.21 in 1.2 mi Calm Calm - N/A   Scattered Clouds
11:30 AM 50.0 °F 50.0 °F 100% 30.18 in 1.6 mi Variable 1.2 mph - N/A   Scattered Clouds
12:00 PM 51.8 °F 51.8 °F 100% 30.18 in 1.9 mi Calm Calm - N/A   Scattered Clouds
12:30 PM 53.6 °F 53.6 °F 100% 30.18 in 1.9 mi NW 4.6 mph - N/A   Scattered Clouds
1:00 PM 57.2 °F 57.2 °F 100% 30.15 in 2.2 mi NW 9.2 mph - N/A   Scattered Clouds
1:30 PM 59.0 °F 55.4 °F 88% 30.15 in 2.2 mi NW 8.1 mph - N/A   Haze
2:00 PM 60.8 °F 55.4 °F 82% 30.12 in 2.2 mi West 4.6 mph - N/A   Haze
2:30 PM 62 °F 53 °F 64% 30.12 in 2 mi West 5.8 mph - -   Haze
2:30 PM 60.8 °F 51.8 °F 72% 30.12 in 2.5 mi West 5.8 mph - N/A   Haze
3:00 PM 60.8 °F 53.6 °F 77% 30.12 in 2.5 mi West 6.9 mph - N/A   Haze
3:30 PM 62.6 °F 51.8 °F 68% 30.12 in 2.5 mi West 6.9 mph - N/A   Haze
4:00 PM 62.6 °F 51.8 °F 68% 30.09 in 2.5 mi West 8.1 mph - N/A   Haze
4:30 PM 62.6 °F 51.8 °F 68% 30.09 in 2.5 mi West 8.1 mph - N/A   Haze
5:00 PM 60.8 °F 51.8 °F 72% 30.09 in 2.5 mi West 6.9 mph - N/A   Haze
5:30 PM 59 °F 59 °F 100% 30.10 in 2 mi West 6.9 mph - -   Haze
5:30 PM 59.0 °F 51.8 °F 77% 30.09 in 2.5 mi West 6.9 mph - N/A   Haze
6:00 PM 55.4 °F 51.8 °F 88% 30.09 in 2.5 mi Variable 1.2 mph - N/A   Mist
7:00 PM 51.8 °F 51.8 °F 100% 30.12 in 1.9 mi Calm Calm - N/A   Mist
7:30 PM 51.8 °F 51.8 °F 100% 30.12 in 1.9 mi Calm Calm - N/A   Mist
8:00 PM 48.2 °F 48.2 °F 100% 30.12 in 1.9 mi Calm Calm - N/A   Mist
8:30 PM 49 °F 49 °F 100% 30.14 in 1 mi Calm Calm - -   Mist
8:30 PM 48.2 °F 48.2 °F 100% 30.12 in 1.9 mi Calm Calm - N/A   Mist
9:00 PM 48.2 °F 48.2 °F 100% 30.12 in 1.9 mi Calm Calm - N/A   Mist
9:30 PM 48.2 °F 48.2 °F 100% 30.12 in 1.9 mi Calm Calm - N/A   Mist
10:00 PM 46.4 °F 46.4 °F 100% 30.12 in 1.9 mi Calm Calm - N/A   Mist
10:30 PM 46.4 °F 46.4 °F 100% 30.12 in 1.9 mi Calm Calm - N/A   Mist
11:00 PM 44.6 °F 44.6 °F 100% 30.12 in 1.6 mi Calm Calm - N/A   Mist